Regional Weather Roundup
Issued by NWS Charleston, SC

Current Version | Previous Version | Text Only | Print | Product List | Glossary Off
Versions: 1 2 3 4 5 6 7 8 9 10 11 12 13 14 15 16 17 18 19 20 21 22 23 24 25 26 27 28 29 30 31 32 33 34 35 36 37 38 39 40 41 42 43 44 45 46 47 48 49 50
000 ASUS42 KCHS 080712 RWRCHS REGIONAL WEATHER ROUNDUP NATIONAL WEATHER SERVICE CHARLESTON SC 200 AM EST THU DEC 08 2016 NOTE: "FAIR" INDICATES FEW OR NO CLOUDS BELOW 12,000 FEET WITH NO SIGNIFICANT WEATHER AND/OR OBSTRUCTIONS TO VISIBILITY. NOT ALL STATIONS ARE QUALITY CONTROLLED. USE DATA WITH CAUTION... ESPECIALLY DEWPOINT OBSERVATIONS. SCZ027-030-031-034>040-042>050-080800- ...SOUTHEAST SOUTH CAROLINA... CITY SKY/WX TMP DP RH WIND PRES REMARKS N CHARLESTON CLOUDY 54 51 90 CALM 30.07F WATERFRONT PRK N/A 55 54 96 CALM 30.07F MOUNT PLEASANT NOT AVBL JOHNS ISLAND PTSUNNY 54 54 100 CALM 30.07F PINOPOLIS N/A 55 54 94 CALM 29.99F MONCKS CORNER NOT AVBL SUMMERVILLE NOT AVBL BEAUFORT MCAS CLOUDY 57 54 89 CALM 30.08R BEAUFORT ARPT NOT AVBL HILTON HEAD IS CLOUDY 57 57 100 SW5 30.08S FOG WALTERBORO CLOUDY 55 N/A N/A CALM 30.08S ALLENDALE CLOUDY 55 54 94 CALM 30.07S FOG ...SOUTHERN MIDLANDS AND PEE DEE... CITY SKY/WX TMP DP RH WIND PRES REMARKS GEORGETOWN NOT AVBL KINGSTREE NOT AVBL ORANGEBURG NOT AVBL BARNWELL NOT AVBL AIKEN CLOUDY 50 50 100 W3 30.10S FOG MANNING NOT AVBL COLUMBIA CLOUDY 52 50 93 CALM 30.07S SUMTER CLOUDY 51 49 93 CALM 30.05S FLORENCE CLOUDY 53 50 89 W7 30.07R MYRTLE BEACH NOT AVBL N MYRTLE BEACH CLEAR 47 47 100 CALM 30.06S FOG $$ GAZ063-065-086>088-099>101-113>116-118-119-134>141-150-080800- ...SOUTHEAST GEORGIA... CITY SKY/WX TMP DP RH WIND PRES REMARKS SAVANNAH ARPT CLOUDY 56 51 84 W9 30.09S HUNTER AAF CLOUDY 56 56 100 W8 30.06S FORT STEWART CLOUDY 55 50 83 CALM 30.07F STATESBORO CLEAR 51 50 95 CALM 30.09R SYLVANIA PTSUNNY N/A N/A N/A CALM 30.09S CLAXTON PTSUNNY N/A N/A N/A CALM 30.10S ...CSRA...CENTRAL AND FAR SOUTHEAST GEORGIA... CITY SKY/WX TMP DP RH WIND PRES REMARKS THOMSON CLOUDY 48 48 100 CALM 30.13S VSB 1/4 AUGUSTA-BUSH CLOUDY 54 52 93 CALM 30.07F AUGUSTA-DANIEL CLOUDY 53 50 89 W3 30.08S SWAINSBORO CLOUDY 54 46 76 NW6 30.10S VIDALIA CLOUDY 54 52 94 CALM 30.10S EASTMAN CLOUDY 56 40 56 CALM 30.14S HAZLEHURST CLOUDY 56 50 80 NW3 30.10R ALMA CLOUDY 53 50 89 W6 30.10S WAYCROSS PTCLDY 51 51 100 W5 30.12R JESUP FAIR 50 50 100 CALM 30.11S FOG BAXLEY CLOUDY 55 54 94 W6 30.10R BRUNSWICK PTCLDY 54 54 100 CALM 30.11S SAINT SIMONS NOT AVBL $$ SCZ027-028-034-036>038-045-046-048>050-GAZ119-141-080800- ...LAKE AND SUPPLEMENTAL COASTAL OBSERVATIONS... STATION/POSITION TIME TEMP WIND PRES WAVE SWELL AIR SEA DIR/SP/G HT/PER HT/PER/DIR (UTC) (F) (DEG/KT/KT) (MB) (FT/S) (FT/S/D) WINYAH BAY 0545 50 280/ 2 1018.0 LAKE MURRAY NOT AVBL ACE BASIN NERRS 0545 54 CALM 1018.0 FORT PULASKI 0648 62 300/ 10/ 12 1018.6F SAPELO ISLAND 0600 56 300/ 7 1019.0 $$ ANZ835-935-AMZ111-154-330-350-352-354-370-450-454-472-080800- ...C-MAN AND BUOY OBSERVATIONS... STATION/POSITION TIME TEMP WIND PRES WAVE SWELL AIR SEA DIR/SP/G HT/PER HT/PER/DIR (UTC) (F) (DEG/KT/KT) (MB) (FT/S) (FT/S/D) BUOY 41004 NOT AVBL BUOY 41008 NOT AVBL FOLLY BEACH CMAN NOT AVBL CAPERS NEARSHORE 0608 56 61 310/ 2/ 4 1018.2F FRIPP NEARSHORE 0608 61 62 50/ 4/ 4 1017.8F STATION/POSITION TIME TEMP WIND PRES WAVE SWELL AIR SEA DIR/SP/G HT/PER HT/PER/DIR (UTC) (F) (DEG/KT/KT) (MB) (FT/S) (FT/S/D) 5E ST. MARYS GA 0630 66 N/A 2/ 3 FRYING PAN BUOY NOT AVBL BUOY 41025 NOT AVBL CAPE LOOKOUT NC NOT AVBL BUOY 41002 NOT AVBL BUOY 41010 NOT AVBL ST AUGUSTINE FL NOT AVBL $$

USA.gov is the U.S. government's official web portal to all federal, state and local government web resources and services.